Regional Weather Roundup
Issued by NWS Nashville, TN

Home | Current Version | Previous Version | Text Only | Print | Product List | Glossary On
Versions: 1 2 3 4 5 6 7 8 9 10 11 12 13 14 15 16 17 18 19 20 21 22 23 24 25 26 27 28 29 30 31 32 33 34 35 36 37 38 39 40 41 42 43 44 45 46 47 48 49 50
000
ASUS44 KOHX 191715
RWROHX
MIDDLE TENNESSEE HOURLY WEATHER ROUNDUP
NATIONAL WEATHER SERVICE NASHVILLE TN
1200 PM CDT SAT APR 19 2014

NOTE: "FAIR" INDICATES FEW OR NO CLOUDS BELOW 12,000 FEET WITH
NO SIGNIFICANT WEATHER AND/OR OBSTRUCTIONS TO VISIBILITY.

* THESE REPORTS ARE NOT UNDER NWS QUALITY CONTROL AND MAY NOT
  REPORT WEATHER SUCH AS PRECIPITATION AND FOG.


TNZ005>011-023>034-057-059-062>066-078-080-191800
...NORTHERN MIDDLE TENNESSEE...

CITY           SKY/WX    TMP DP  RH WIND       PRES   REMARKS
BAXTER*          N/A     72  46  40 N8          N/A
BRENTWOOD*       N/A     73  46  38 E6          N/A
CASTALIAN SPRG   N/A     72  45  37 NE3         N/A
CLARKSVILLE    SUNNY     71  45  39 NE12G20   30.22F
COLUMBIA       SUNNY     72  54  53 NE12      30.18F
CROSSVILLE     PTSUNNY   65  35  33 NE16      30.19F
GALLATIN         N/A     71  42  35 NE9       30.22F
DICKSON        SUNNY     70  37  30 VRB7      30.21F
FAIRFIELD GLAD   N/A     64  37  36 N2          N/A
GOODLETTSVILLE   N/A     68  46  45 E8          N/A
JOELTON*         N/A     72  45  37 CALM        N/A
LAFAYETTE*       N/A     72  43  35 NE6         N/A
LIVINGSTON     PTSUNNY   65  38  36 NE13      30.20F
MONTEREY         N/A     72  41  33 CALM        N/A
MOUNT JULIET*    N/A     72  45  37 CALM        N/A
NASHVILLE      MOSUNNY   73  41  31 NE18G26   30.21F
OLD HICKORY*     N/A     72  48  43 N3          N/A
PEGRAM*          N/A    N/A N/A N/A W3          N/A
PORTLAND         N/A     70  39  32 NE16      30.21F
SMYRNA         SUNNY     74  39  28 N12G21    30.21S
SPARTA         SUNNY     70  43  37 VRB6      30.17F
SPRINGFIELD*     N/A     72  52  49 MISG        N/A
WHITE BLUFF*     N/A     75  37  25 E13         N/A
$$
TNZ056-058-060-061-075>077-079-093>097-191800
...SOUTHERN MIDDLE TENNESSEE...

CITY           SKY/WX    TMP DP  RH WIND       PRES   REMARKS
BELLEVUE*        N/A     72  46  40 CALM        N/A
CULLEOKA*        N/A     73  37  27 W3          N/A
EAGLEVILLE*      N/A    N/A N/A N/A NE17        N/A
FAYETTEVILLE   PTSUNNY   68  42  38 N13       30.17F
HOHENWALD*       N/A     73  37  27 S6G20       N/A
LEWISBURG      SUNNY     72  40  31 NE16      30.18F
MANCHESTER*      N/A     66  46  48 NE8         N/A
MCMINNVILLE      N/A     70  43  37 NE10      30.18F
MOUNT PLEASANT   N/A     72  50  46 NW3         N/A
MURFREESBORO   SUNNY     72  39  30 NE12      30.19F
SHELBYVILLE    SUNNY     70  43  37 NE13      30.19F
SPRING HILL*     N/A     70  41  35 E5          N/A
TULLAHOMA      SUNNY     66  37  34 NE10      30.19S
WINCHESTER     SUNNY     66  43  42 NE14      30.17S
$$


...KEY TO REMARKS...
VSB - VISIBILITY IN MILES
WCI - WIND CHILL INDEX
HX  - HEAT INDEX




USA.gov is the U.S. government's official web portal to all federal, state and local government web resources and services.